Theta_e
317 317 317 317 317 317 317 318 318 318 319 319 320 320 320 320 321 321 321 321 321 320 321 320 320 320 321 321 321 321 320 317 316 314 313 318 327 338 341 350 343 357 361 349 346 341 336 340 341 343 340 340 338 335 340 339 336 333 323 318 314 315 313 319 319 321 325 322 326 328 330 329 326 331 334 339 335 334 333 334 337 339 339 341 343 346 347 348
317 317 317 316 317 317 317 317 318 318 318 319 319 319 320 320 320 321 320 320 320 320 320 320 320 320 320 320 320 320 319 317 314 314 315 327 343 345 352 353 348 360 355 343 337 336 334 332 340 339 337 333 336 329 340 334 335 325 319 317 315 316 318 321 323 325 324 324 328 329 330 329 328 332 335 330 330 331 329 333 336 336 339 342 344 345 346 348
317 317 316 316 316 317 317 317 317 318 318 318 319 319 319 320 320 320 319 320 320 319 319 319 319 319 320 320 319 320 318 316 315 310 315 344 347 346 349 352 349 359 338 336 337 336 334 333 339 337 335 327 329 324 334 329 333 326 322 318 318 320 321 322 323 324 327 329 328 328 329 329 331 332 336 329 329 330 327 329 333 333 335 339 342 344 345 348
317 316 316 316 316 316 316 317 317 317 317 318 318 319 319 319 319 319 319 319 319 319 319 319 319 319 319 320 320 320 317 316 309 312 323 353 354 349 349 352 353 353 330 335 334 333 335 337 340 336 330 320 321 324 324 329 327 327 322 319 321 322 319 321 323 325 327 331 329 328 329 328 331 333 331 330 327 327 329 334 332 333 336 339 341 343 345 346
316 316 315 316 316 316 316 317 317 317 317 318 318 318 318 319 319 319 318 318 318 319 318 319 319 319 319 320 319 320 316 307 309 309 314 353 355 348 349 353 360 341 326 329 326 321 331 333 336 325 319 312 317 321 323 327 330 323 323 326 325 321 320 323 323 325 328 331 330 329 326 326 334 332 330 330 325 323 330 335 337 338 340 340 340 342 345 345
315 315 315 315 315 315 316 316 317 317 317 317 317 318 318 318 318 318 318 318 318 318 318 319 319 319 320 320 320 317 310 300 311 314 360 358 356 352 348 355 359 331 325 326 323 318 323 328 324 316 314 312 313 316 320 325 327 319 323 324 326 323 322 323 323 325 329 328 328 327 329 333 330 328 331 330 327 329 335 338 339 341 343 343 343 344 343 343
314 314 315 314 315 315 315 316 315 316 316 317 318 318 318 317 317 317 317 317 317 318 319 319 319 319 319 320 315 315 312 313 317 317 336 361 359 356 354 356 357 324 324 322 320 316 317 322 318 314 314 313 315 317 318 320 324 322 319 322 324 323 322 323 323 326 329 329 328 331 334 329 329 325 331 328 329 331 334 339 341 344 345 344 342 343 342 343
314 314 314 314 314 314 315 315 315 315 316 316 317 317 317 317 316 317 317 317 317 318 318 318 319 319 319 317 313 307 308 310 319 317 339 354 349 358 358 350 336 322 320 319 319 317 317 318 315 316 314 311 314 315 317 316 319 319 318 320 320 322 323 324 324 326 328 329 331 331 328 329 330 329 330 327 330 333 336 340 343 345 344 343 343 343 344 344
313 314 314 314 314 314 315 315 315 315 316 316 317 316 316 316 316 316 317 317 317 318 319 319 319 320 322 319 308 308 310 316 317 325 342 341 340 343 351 343 332 321 319 320 321 319 317 315 315 316 310 312 316 315 314 315 312 318 320 321 319 321 322 324 324 326 328 329 331 328 328 331 331 332 327 329 331 336 340 340 342 344 342 341 342 344 344 344
313 313 314 314 314 315 315 315 315 315 316 316 316 316 315 316 316 316 317 317 317 318 319 320 320 320 319 316 308 306 315 317 317 339 340 338 335 327 329 338 330 322 319 318 318 317 316 315 314 316 317 314 316 315 315 315 313 317 319 320 318 320 322 324 323 325 328 328 330 327 327 328 330 328 322 331 334 338 339 340 342 342 341 341 342 343 346 344
313 313 313 314 314 314 314 314 315 315 315 315 315 315 315 315 315 316 317 317 318 319 320 320 321 320 314 317 310 308 318 326 332 337 334 333 328 324 327 330 329 322 319 317 317 319 317 317 317 318 316 314 315 314 313 314 316 315 318 319 319 321 323 323 324 325 327 325 330 329 326 328 329 328 324 330 337 339 338 339 340 341 341 342 343 344 346 347
313 313 313 314 314 314 314 314 314 314 315 314 315 314 315 315 315 315 317 317 319 320 320 321 321 320 318 313 310 313 318 322 330 323 329 321 318 321 326 329 326 322 319 316 317 318 317 319 319 317 309 318 312 313 313 315 314 316 318 315 319 321 320 322 321 324 326 323 330 330 325 322 325 323 328 333 338 338 338 339 340 340 341 343 344 344 345 345
313 313 313 314 313 314 314 314 314 315 314 314 314 314 314 314 315 316 317 318 320 321 321 322 321 319 316 309 313 320 321 320 319 319 319 320 320 325 327 327 323 320 320 319 317 319 318 319 320 317 317 316 314 311 316 318 316 321 320 320 318 318 317 321 324 325 324 325 330 328 312 318 323 327 331 336 336 337 337 338 339 340 341 342 343 344 344 346
313 313 313 313 313 314 314 314 314 314 313 314 314 313 313 314 315 316 318 319 321 321 322 323 322 319 311 310 318 319 320 321 320 324 326 322 320 320 321 326 324 320 320 320 321 321 319 320 319 316 316 314 313 316 320 320 322 316 321 321 316 313 314 322 322 324 322 328 328 327 313 317 322 327 333 336 337 336 334 337 338 339 340 341 343 343 343 345
313 313 313 313 313 314 313 313 313 313 313 313 313 313 313 313 315 317 320 322 321 322 323 325 322 318 312 315 323 325 335 329 330 330 326 319 317 316 319 321 323 323 320 320 318 316 320 319 317 313 311 314 314 312 316 318 319 321 314 312 317 313 316 321 326 323 321 325 328 324 314 316 322 327 333 336 336 335 334 336 337 338 339 340 342 342 342 344
312 312 312 313 313 313 313 313 312 313 313 312 312 312 314 314 316 320 322 322 322 324 323 321 319 316 313 309 316 327 325 319 319 325 326 322 318 316 319 318 320 321 319 319 318 318 318 318 312 312 311 311 311 311 316 315 316 318 314 313 313 315 316 318 323 325 327 325 327 322 315 320 320 329 333 337 336 335 334 335 336 337 337 338 340 341 342 344
312 312 312 312 313 312 313 312 312 312 312 312 312 312 314 315 319 324 324 324 323 323 322 320 321 322 306 316 323 316 316 319 322 320 321 321 321 316 317 316 316 316 316 315 317 316 315 313 313 311 311 310 311 314 311 310 311 313 314 314 316 313 316 315 322 325 328 325 320 323 319 320 327 330 332 335 336 334 333 335 336 336 337 338 339 340 341 342
312 312 312 312 312 312 312 312 312 312 311 311 310 311 310 314 319 323 323 323 323 322 321 323 322 315 311 316 312 314 316 315 317 319 320 321 320 316 316 312 312 315 315 311 313 312 313 310 311 306 308 308 312 312 307 305 309 311 311 312 313 316 317 317 316 322 326 325 321 321 320 320 326 330 331 334 336 334 333 334 336 336 337 338 339 340 341 342
312 312 311 312 312 312 312 312 311 311 310 311 311 312 314 318 320 321 319 320 313 310 306 313 311 303 301 307 313 313 315 318 320 318 317 319 318 316 313 314 315 313 309 309 308 311 310 309 308 306 302 304 308 312 309 312 315 313 314 313 314 312 315 316 320 325 325 322 320 321 318 319 326 329 331 333 336 334 334 336 336 336 337 338 339 339 340 341
311 311 312 311 311 312 311 311 311 311 310 307 308 308 312 306 306 305 315 318 310 312 311 310 316 314 312 311 311 316 318 320 313 317 319 322 318 315 313 312 309 311 309 305 306 308 310 304 302 302 304 306 309 315 314 316 318 317 315 315 315 314 316 319 319 324 328 324 321 322 322 322 324 328 330 332 335 334 334 334 335 336 336 337 338 339 340 341
311 312 311 312 311 311 311 311 311 310 309 308 305 302 299 300 298 298 302 304 307 309 308 309 309 308 308 311 313 313 310 311 316 315 320 326 318 316 311 309 307 305 307 307 306 308 308 303 303 305 307 308 309 313 317 316 318 316 314 314 314 315 314 318 318 324 328 322 321 323 321 322 324 328 331 332 332 331 332 333 334 335 336 337 339 339 340 342
311 311 312 311 312 311 311 311 310 310 309 307 303 298 298 302 306 307 304 298 304 307 307 308 310 307 311 311 313 313 312 307 310 313 319 320 315 312 311 307 306 306 305 304 305 304 303 301 305 306 309 310 310 310 312 315 316 316 314 314 313 314 314 316 318 323 325 323 320 321 320 321 324 327 331 331 331 333 334 334 334 335 335 336 337 339 340 341
311 311 311 312 311 311 310 310 309 308 307 304 302 301 300 306 308 310 306 301 299 305 304 305 304 305 306 311 312 314 306 305 304 310 313 317 312 312 310 306 306 306 303 304 301 302 299 302 306 308 307 307 307 308 308 313 317 315 313 312 311 314 312 309 316 321 323 321 319 321 318 320 324 328 330 332 332 333 335 335 335 336 336 336 336 339 339 340
311 311 311 311 311 310 310 309 308 307 306 303 302 302 306 308 308 307 305 297 298 302 306 307 307 307 307 307 313 311 307 307 308 308 318 315 311 314 310 308 305 304 303 303 303 302 301 305 308 306 306 308 306 307 307 309 311 314 313 313 313 310 314 315 313 319 321 320 321 320 318 317 322 321 325 331 333 332 333 334 334 335 336 338 338 339 340 340
311 311 311 310 310 309 308 308 305 305 305 304 303 306 308 308 309 307 300 302 303 303 310 309 308 309 310 319 315 310 310 310 311 314 317 317 311 310 310 309 308 304 304 303 302 302 303 305 306 306 305 308 308 306 307 309 308 311 313 315 314 314 315 315 316 316 314 314 319 316 309 310 320 321 322 328 330 329 332 332 332 333 334 335 335 336 339 340
310 311 311 310 311 309 308 303 305 305 304 302 303 309 309 308 308 308 305 299 295 304 307 303 310 308 317 310 312 312 311 306 313 315 317 318 320 315 308 307 309 305 302 301 302 303 304 306 305 305 305 306 307 307 309 310 308 308 310 312 313 314 314 315 315 314 310 308 316 319 308 305 318 318 322 327 328 328 331 331 331 333 334 334 334 335 336 337
311 311 311 310 310 308 304 301 307 305 299 301 308 310 308 307 311 306 301 296 294 305 303 307 308 309 314 312 312 313 299 302 314 316 316 321 314 316 310 306 307 306 305 305 303 301 304 304 305 305 306 305 306 305 308 310 308 306 312 312 312 313 312 314 315 314 313 318 318 318 315 308 308 315 324 327 326 327 328 330 331 332 334 333 334 334 336 337
311 310 310 309 309 308 304 305 303 301 302 303 309 309 308 309 309 307 301 289 290 306 305 307 310 314 313 313 315 308 307 308 305 312 317 319 317 311 311 306 307 306 304 306 298 304 304 303 304 303 304 305 304 308 311 310 309 309 310 312 311 313 314 315 314 312 314 312 310 314 315 309 308 315 321 326 322 325 326 328 330 332 333 334 334 334 335 337
310 310 310 309 309 308 309 306 304 302 307 308 308 308 308 309 305 303 296 287 303 304 311 304 312 312 311 312 310 310 309 310 304 309 317 317 317 313 308 308 309 308 307 307 303 302 304 306 306 306 304 303 308 308 310 310 308 310 309 311 312 314 316 316 313 312 312 310 306 312 314 307 307 316 317 323 322 323 325 328 330 332 333 334 334 335 336 337
310 310 309 309 308 308 307 307 303 308 309 309 309 309 308 306 306 295 290 285 305 297 306 307 306 304 309 307 307 309 307 308 309 311 314 312 314 312 308 312 308 307 304 306 307 307 306 310 310 308 305 307 308 310 310 311 311 310 310 309 309 311 313 314 315 314 311 304 306 313 314 311 303 313 316 316 320 324 326 329 332 333 334 335 336 336 336 336
309 308 308 309 304 306 305 301 306 309 310 310 309 307 306 306 299 291 286 294 302 303 307 305 303 305 304 304 301 307 308 308 308 311 308 311 309 309 308 307 308 306 304 303 303 306 306 307 306 307 311 310 311 307 310 313 310 311 308 308 307 308 311 311 310 312 303 300 309 312 313 313 302 307 318 324 327 327 327 327 329 330 332 334 335 335 336 337
307 307 308 307 307 309 301 301 305 308 308 308 306 303 302 292 296 289 288 307 294 300 301 301 303 303 303 304 301 304 305 306 308 308 307 307 306 304 306 304 304 298 299 299 299 302 302 305 308 306 314 309 308 306 307 309 308 309 308 308 303 300 302 298 303 299 300 299 307 310 314 309 308 312 321 322 324 326 328 328 329 331 332 334 335 335 336 337
306 306 306 308 309 307 307 308 307 308 309 307 302 302 296 291 285 293 293 299 295 304 301 303 302 303 303 302 301 304 305 303 307 307 309 307 307 306 308 308 307 305 297 300 299 298 301 304 304 305 306 310 309 302 304 303 306 307 305 305 302 297 296 293 297 301 302 305 308 307 315 306 313 316 321 320 322 324 327 329 330 331 333 334 335 336 335 337
305 306 306 308 308 308 309 312 310 310 306 305 300 298 296 288 287 301 295 298 299 302 303 302 302 303 302 299 301 304 301 306 304 305 307 304 305 303 304 304 306 304 304 300 298 298 294 295 301 303 301 310 307 307 307 307 306 306 309 307 304 303 298 294 297 295 297 301 306 311 306 305 304 309 321 323 325 327 326 327 330 331 332 334 335 335 336 336
305 306 307 308 308 309 310 310 310 310 306 304 296 294 287 287 295 295 295 298 300 302 300 302 301 300 299 301 302 304 303 302 305 304 304 303 302 304 302 303 304 306 304 298 300 299 298 298 303 307 307 308 306 309 311 309 307 308 308 310 307 303 308 300 303 301 302 301 302 306 305 312 310 322 322 323 321 323 324 325 327 328 330 332 332 332 333 334
305 307 308 306 306 310 309 310 309 308 304 298 292 289 287 292 290 298 297 304 302 299 299 301 300 298 298 300 303 301 305 302 303 303 303 304 305 303 306 306 303 305 302 299 301 296 298 296 303 304 304 307 308 309 309 310 299 305 305 302 305 313 308 306 304 302 303 302 300 311 308 311 316 317 319 322 322 323 327 325 324 326 328 331 331 332 333 334
304 306 303 305 306 311 310 310 309 306 303 296 290 286 292 293 298 299 303 303 300 301 298 295 297 297 296 296 300 300 302 303 302 302 300 303 301 305 303 305 307 305 307 306 300 305 298 298 302 304 302 306 309 310 310 310 310 305 302 306 309 311 312 308 299 302 300 296 301 306 304 306 306 303 324 318 319 320 323 325 324 326 329 328 329 332 334 334
302 303 304 306 310 311 311 310 308 305 300 293 288 293 295 292 298 299 301 299 299 299 297 296 297 299 296 297 297 299 301 298 299 301 299 302 300 307 305 305 306 306 307 309 304 303 303 296 301 304 305 306 306 308 307 310 311 308 306 312 305 300 300 311 306 296 296 295 297 302 306 306 308 306 314 316 318 320 324 327 324 324 326 327 329 332 335 335
303 301 299 308 311 311 310 310 307 302 296 290 290 290 296 294 298 298 300 300 299 298 295 296 296 299 299 297 298 299 299 296 300 299 297 300 298 305 305 307 304 307 307 308 304 305 303 296 299 304 304 306 306 305 298 303 307 306 310 308 310 308 307 302 303 308 303 297 296 298 301 300 310 311 314 313 319 326 324 326 323 324 326 328 329 331 333 335
300 295 294 310 311 311 311 308 302 299 293 290 291 291 298 294 297 300 301 300 298 296 295 295 298 296 298 298 298 296 300 300 299 299 298 301 301 304 303 307 306 305 307 308 306 307 302 306 296 301 303 304 300 302 300 303 302 303 304 304 305 307 309 309 308 304 301 299 298 297 296 303 312 318 316 319 321 324 324 325 329 328 327 328 330 331 334 335
302 294 294 310 311 311 310 307 298 293 292 295 293 292 294 294 297 299 300 301 300 302 298 298 299 296 298 297 297 301 299 300 300 298 300 300 301 300 306 306 307 305 305 305 305 306 303 301 297 301 299 299 302 306 305 305 306 304 304 303 305 303 302 298 298 304 305 301 296 297 296 307 313 319 321 321 323 322 326 326 327 328 328 330 330 332 335 335
297 288 297 310 311 310 302 293 297 298 294 293 292 293 292 300 297 297 298 300 300 298 301 298 299 297 297 296 297 298 297 297 298 298 300 298 303 303 305 307 308 306 304 302 303 306 308 307 302 298 300 301 304 307 309 308 307 307 306 304 307 306 307 302 295 301 303 304 305 306 300 304 318 320 320 322 322 321 324 325 324 326 329 329 330 330 334 338
295 291 301 306 308 305 298 293 298 298 294 296 301 299 301 300 300 300 297 299 298 299 298 297 298 297 298 297 298 297 298 296 298 297 300 301 303 305 306 305 307 306 307 306 306 306 312 303 300 300 305 306 307 307 306 307 306 304 305 307 307 304 305 304 304 309 302 305 301 301 299 303 319 323 323 321 328 325 328 324 326 327 329 329 330 330 334 337
295 295 298 307 310 306 297 291 292 294 296 299 300 299 303 302 302 301 300 300 299 298 298 298 299 300 298 301 299 297 301 294 300 299 299 304 302 310 307 307 307 306 305 305 305 310 301 309 302 298 297 299 301 304 304 305 305 303 302 305 307 307 308 308 311 312 303 305 303 301 295 302 316 323 325 321 319 319 320 323 327 327 332 330 331 333 334 338
296 299 299 302 310 305 295 297 295 295 295 296 296 296 298 299 302 302 301 301 304 303 302 301 302 303 299 301 299 300 302 298 297 303 303 303 303 309 308 306 307 308 308 310 319 311 305 305 301 294 292 290 290 291 294 299 300 303 305 304 306 305 305 306 301 305 297 308 307 301 300 309 319 323 321 323 324 323 323 324 326 328 331 330 331 332 336 337
295 288 295 302 306 304 303 303 301 297 296 296 295 297 298 297 300 303 303 302 305 304 304 304 304 304 302 302 300 300 300 303 300 301 304 302 305 308 312 312 312 313 318 321 320 311 308 310 304 303 299 296 299 304 309 307 303 300 302 303 303 305 307 307 310 305 299 304 304 301 308 309 314 315 318 319 324 322 322 327 326 328 330 332 335 335 335 337
297 290 295 293 300 300 300 301 300 299 295 299 293 297 295 297 299 300 304 299 304 303 303 303 303 301 302 301 300 300 302 301 303 302 301 301 303 306 311 311 312 316 325 326 328 311 312 303 305 306 306 305 305 306 307 305 302 303 302 302 304 304 305 305 303 300 314 303 298 303 312 309 311 316 319 321 324 329 331 331 330 331 332 332 332 335 335 335
290 295 299 300 292 290 295 296 299 297 299 300 295 298 295 296 297 296 302 303 302 303 300 302 302 303 303 301 302 298 301 301 302 300 303 303 303 305 304 308 308 319 318 313 321 313 305 300 303 304 304 305 305 305 306 305 304 304 304 304 303 304 305 303 306 307 312 303 299 309 314 313 313 314 319 321 326 328 327 331 331 332 333 333 333 331 331 332
299 298 297 301 293 296 296 296 297 298 297 297 295 296 294 296 296 299 297 299 301 300 302 298 300 302 302 303 302 301 303 298 298 303 303 302 303 303 302 305 310 314 312 312 314 316 307 301 306 304 302 303 304 304 305 304 304 304 304 304 305 304 304 305 305 307 309 308 309 313 316 312 313 315 318 322 327 326 331 333 330 329 328 332 331 332 331 332
292 292 291 296 295 293 294 295 298 297 293 297 292 295 296 295 295 296 298 297 296 299 301 299 300 301 301 301 302 301 303 304 304 301 307 305 304 308 304 306 306 313 313 309 310 315 306 303 307 303 302 301 303 304 304 304 303 302 304 305 305 305 305 305 306 307 309 308 308 310 316 315 317 320 321 328 335 328 326 324 325 330 332 331 331 331 332 332
296 297 296 292 289 291 295 296 295 293 292 294 292 295 295 295 293 295 295 299 297 298 300 298 299 299 300 300 302 302 305 303 303 303 305 305 302 309 305 308 309 309 311 309 310 311 308 307 306 305 300 300 303 303 303 303 303 302 302 304 304 303 302 304 305 308 307 308 312 310 309 310 317 322 321 322 323 324 324 328 329 331 330 333 332 332 333 335
299 300 299 295 288 294 291 293 293 292 289 294 296 295 293 293 295 296 294 300 301 301 301 299 298 297 298 300 301 304 304 303 302 303 305 306 308 308 309 309 310 309 314 312 311 309 312 307 304 303 299 300 304 303 302 302 301 298 300 303 305 305 306 306 307 309 308 309 307 306 306 314 319 323 319 320 320 323 325 327 330 332 334 333 334 335 335 336
Wind_Speed
23 22 22 22 22 22 23 23 23 23 23 22 21 20 20 21 21 21 20 20 20 20 19 19 20 20 19 18 17 17 15 8 4 3 3 14 14 11 14 6 15 13 13 13 13 14 10 9 10 9 7 5 3 4 5 4 3 3 2 2 4 3 10 9 11 12 6 12 13 14 14 11 12 9 6 9 8 10 10 5 7 3 3 10 10 15 17 19
23 23 23 23 22 22 23 23 23 23 22 22 23 22 22 20 20 20 20 20 20 20 19 20 20 19 19 17 16 15 14 5 8 7 16 14 5 13 11 10 18 18 14 13 17 13 15 10 11 12 9 4 3 2 9 4 6 4 2 2 4 6 5 7 9 9 9 12 13 13 12 12 10 12 8 8 11 12 10 7 8 7 10 11 15 17 17 19
24 24 24 24 23 22 22 25 23 23 23 23 23 22 22 21 21 22 22 21 21 20 20 20 19 18 17 15 14 12 10 5 5 9 6 3 10 12 12 10 20 18 17 10 10 13 13 13 13 12 6 3 4 4 8 3 7 5 2 4 5 3 6 8 10 12 7 13 15 14 12 11 11 9 8 8 14 12 13 11 9 11 13 14 17 18 18 17
24 24 24 24 24 23 23 23 24 23 23 23 23 23 23 23 22 21 21 21 22 21 20 19 19 17 15 14 12 10 5 6 6 2 1 5 3 14 13 10 15 16 5 7 10 9 7 13 15 11 6 3 5 2 6 6 5 4 5 6 3 5 7 7 13 13 8 16 15 13 12 10 12 9 10 12 12 11 9 13 18 16 16 17 19 18 18 18
24 24 25 24 25 24 24 23 24 23 24 24 23 24 23 23 23 23 22 22 22 20 19 19 18 16 14 10 10 6 4 6 2 1 3 3 5 13 14 12 12 12 7 7 7 6 11 14 11 5 3 5 4 5 5 9 6 3 7 9 4 4 8 9 13 14 11 12 15 14 15 12 11 9 10 17 12 11 13 14 9 16 18 20 20 19 18 19
24 24 25 25 25 24 24 25 25 24 23 23 23 24 23 23 22 22 21 22 22 21 21 19 17 14 12 9 8 4 2 6 2 1 4 4 6 10 14 14 15 9 6 12 10 8 12 10 13 7 5 5 8 8 5 9 8 6 7 8 7 7 8 6 11 12 15 13 14 15 13 13 14 9 12 18 11 2 5 11 12 14 17 18 18 18 18 19
24 24 24 24 25 26 26 25 26 24 25 24 24 23 23 23 23 23 21 20 19 19 20 18 14 13 9 10 3 2 4 10 6 3 4 7 3 8 12 13 14 11 10 11 11 12 12 13 14 9 7 5 5 8 6 8 8 8 8 4 10 7 9 10 13 14 15 18 18 12 13 14 13 11 12 15 5 3 4 11 12 13 15 19 19 18 18 18
24 24 24 24 24 26 27 27 26 25 25 24 25 25 24 23 23 21 22 23 23 21 19 16 12 8 8 5 2 1 2 8 12 2 4 5 5 3 12 11 14 12 14 16 15 15 15 16 15 7 7 9 5 11 4 5 6 11 11 6 3 5 6 10 12 15 16 14 12 14 15 16 16 7 13 15 8 2 9 14 14 15 16 17 18 18 17 16
25 25 25 25 24 25 27 27 26 25 25 25 25 26 26 26 24 25 24 22 22 21 18 12 10 8 1 2 2 6 8 8 2 2 4 5 7 9 12 9 11 16 16 13 12 12 16 14 11 11 7 12 6 12 5 9 6 10 12 6 2 5 7 11 11 15 15 8 13 14 12 9 7 8 11 10 6 7 12 15 16 16 17 18 18 17 17 17
26 25 25 25 25 26 27 28 26 26 26 27 28 27 27 24 25 23 24 23 22 19 15 10 5 6 4 3 3 5 5 2 1 3 5 6 6 6 3 8 14 13 12 12 8 12 15 11 14 8 2 4 6 5 6 10 2 7 10 9 8 5 8 11 15 14 14 12 18 16 11 10 6 7 6 7 8 11 14 16 16 17 18 18 16 16 15 16
26 26 25 26 27 28 27 28 27 27 27 28 28 28 26 28 25 25 23 23 20 16 11 7 5 4 3 3 5 11 2 3 2 4 4 4 5 1 4 9 14 14 14 10 14 15 7 6 1 3 3 3 8 5 7 3 4 3 5 4 1 3 7 11 12 14 11 7 12 12 9 7 6 6 6 10 11 14 15 16 17 17 17 15 16 15 15 14
25 26 26 27 28 28 27 27 27 29 27 29 29 29 28 27 28 26 23 20 16 10 6 2 6 3 3 3 8 10 2 2 5 3 2 1 4 4 6 11 14 13 13 14 10 7 4 4 6 7 4 6 7 4 6 3 3 4 9 3 2 7 7 11 14 15 15 8 11 12 9 6 9 10 5 12 12 14 15 16 17 17 16 15 15 14 14 15
26 26 27 27 28 28 28 27 28 28 29 30 29 29 29 29 27 25 22 16 7 4 2 5 5 2 1 6 10 12 4 3 3 3 5 5 3 1 5 10 11 6 9 9 10 8 5 5 6 10 2 4 5 3 3 3 4 8 5 7 7 6 6 8 5 12 12 8 16 15 8 11 15 9 7 13 14 14 13 13 15 14 14 14 14 13 14 14
27 27 27 28 29 29 28 28 29 28 29 30 29 29 29 28 27 24 17 11 4 3 4 7 4 1 1 8 3 2 5 3 3 7 7 3 7 4 3 7 6 4 4 9 6 6 6 2 2 1 1 5 3 2 6 4 5 7 6 5 5 8 7 9 8 13 10 7 16 16 11 9 11 11 9 13 16 17 15 15 16 14 14 13 14 13 13 15
27 28 29 29 30 29 29 29 29 28 30 30 29 29 29 28 24 18 12 4 4 6 7 6 1 2 2 9 5 7 5 2 3 7 3 6 8 5 5 5 8 6 4 3 2 1 3 5 2 4 4 1 1 2 4 4 3 6 7 5 3 8 6 8 3 15 13 6 13 13 10 11 8 12 13 13 15 17 15 15 16 15 14 14 13 14 14 14
25 27 29 30 29 30 30 29 30 30 29 29 29 32 29 23 17 13 1 4 7 8 5 2 2 1 5 11 3 4 2 3 2 2 3 6 7 3 9 5 3 3 2 2 1 2 3 6 7 5 4 2 6 5 5 5 5 3 6 5 9 6 7 7 8 11 7 14 10 17 7 5 5 10 14 14 16 16 14 15 15 16 17 15 13 13 12 12
23 25 29 29 29 31 31 30 31 32 28 30 32 29 23 16 9 3 7 7 5 3 2 1 2 3 4 1 6 6 3 2 2 1 2 5 6 8 12 8 5 5 3 1 2 0 2 7 2 2 2 4 4 8 8 7 6 8 3 5 7 12 9 7 8 10 8 16 13 14 10 6 6 8 14 16 17 16 14 15 16 15 14 15 13 13 13 13
26 24 28 27 29 30 30 27 31 32 28 31 29 24 17 13 9 2 4 3 3 2 1 1 2 2 10 1 5 2 3 4 2 4 4 1 7 10 8 5 4 7 6 3 3 8 3 6 3 7 6 6 6 11 11 11 10 9 7 6 5 3 14 10 11 13 12 16 15 16 15 15 3 7 11 14 16 16 15 15 16 15 15 14 13 13 14 13
28 27 27 28 28 30 28 28 30 28 27 32 25 16 3 1 0 2 2 2 2 1 2 3 3 4 5 3 1 3 4 3 3 2 3 6 5 3 3 5 12 12 6 5 4 9 3 2 1 5 13 10 12 14 13 7 12 13 14 11 10 10 10 9 7 10 16 15 14 16 16 17 5 6 9 12 14 15 14 13 12 14 14 14 14 13 13 13
28 27 28 29 29 31 31 30 29 26 27 20 11 5 3 1 1 1 3 3 5 7 9 3 5 9 15 16 14 5 4 2 4 3 1 3 10 7 4 4 5 3 8 9 6 8 5 10 11 12 11 12 12 12 12 8 13 8 6 8 12 12 7 7 6 8 13 9 13 12 10 5 4 6 9 11 12 13 13 15 13 13 13 14 13 14 15 15
25 26 27 27 26 32 31 30 30 27 24 9 8 3 3 2 3 4 8 13 11 10 13 15 14 14 16 3 2 3 6 4 5 4 6 4 6 11 3 4 8 6 7 5 8 3 6 10 12 11 11 14 13 11 7 5 11 13 10 9 8 9 8 9 8 11 12 11 9 5 5 9 5 4 8 10 12 16 17 16 16 15 14 13 15 16 16 16
25 25 25 25 24 28 30 30 28 25 15 3 4 3 1 4 3 4 3 10 7 13 14 17 10 15 15 15 14 2 1 8 11 11 5 5 6 7 5 5 9 8 5 4 3 6 10 14 8 8 8 11 11 10 8 11 12 11 10 9 6 5 7 6 7 9 10 11 8 5 11 10 5 5 8 13 15 14 15 16 15 14 15 13 14 15 15 13
26 24 25 25 25 27 30 27 27 18 4 4 6 3 1 4 6 4 3 6 14 7 11 12 10 17 15 7 9 9 12 14 10 5 9 10 4 8 9 7 8 6 6 8 11 8 10 11 7 6 3 8 4 6 8 10 10 10 7 7 10 8 10 7 6 10 10 7 5 5 9 8 3 6 10 13 15 13 13 14 14 14 16 17 17 16 14 15
26 27 24 24 25 26 30 28 22 5 3 7 5 5 2 4 5 7 3 5 10 7 9 8 9 6 10 6 4 13 13 6 7 10 6 13 11 6 8 9 8 7 9 9 9 10 7 5 7 7 9 11 12 9 10 9 9 9 12 13 9 11 13 8 8 6 8 3 3 5 6 9 7 9 9 11 13 13 13 13 14 14 15 14 13 14 15 17
26 27 25 24 24 25 29 25 3 5 11 8 4 5 2 4 4 5 3 4 4 9 2 3 4 6 6 3 9 9 8 3 12 2 6 11 8 8 7 4 5 8 8 8 4 6 8 1 4 12 9 11 10 9 12 11 8 8 11 12 13 16 13 8 13 11 6 6 8 8 5 11 8 13 14 9 11 15 14 14 17 17 16 14 15 15 14 15
28 27 25 23 25 23 29 7 2 8 14 5 1 3 2 4 4 2 3 2 6 5 2 2 3 1 4 5 6 5 7 6 9 10 5 5 9 7 4 5 3 9 8 8 7 4 6 3 8 12 12 10 12 10 12 14 9 9 9 8 9 12 12 11 13 11 7 11 11 13 12 11 4 9 12 11 12 15 13 17 18 17 16 16 15 15 15 16
26 27 23 22 22 21 11 3 5 12 5 2 1 4 4 5 3 4 2 2 5 2 3 3 3 1 2 5 9 6 4 1 2 6 11 5 12 2 11 7 2 4 3 4 1 7 4 7 6 5 12 13 11 12 10 13 10 10 6 13 8 11 14 15 14 14 7 2 5 14 11 12 10 9 8 11 12 12 15 18 19 18 18 19 17 18 16 16
27 26 23 21 19 13 8 9 10 6 8 2 3 5 7 5 2 1 3 3 4 1 0 2 2 2 2 4 9 7 3 2 2 5 13 7 8 2 10 11 10 9 6 6 13 2 8 8 10 9 9 10 13 8 10 10 10 3 6 15 13 14 13 15 14 12 6 7 4 8 2 5 8 5 2 11 11 13 17 19 20 21 20 20 20 19 19 19
25 26 25 22 20 15 10 7 4 8 2 3 6 8 5 5 3 2 1 2 1 1 2 3 3 3 3 3 8 8 5 2 3 3 4 1 5 3 10 10 10 12 10 13 9 4 2 10 13 11 9 11 4 2 10 12 13 1 5 5 6 4 8 14 11 10 5 8 9 10 12 9 11 4 4 6 10 13 18 20 21 22 21 20 20 20 20 17
27 27 27 21 17 4 2 5 12 11 4 8 10 8 6 2 2 4 2 6 4 0 2 2 3 1 2 5 5 7 9 4 1 3 8 6 9 3 5 3 8 10 8 2 11 6 1 4 3 9 12 8 8 4 9 14 1 10 12 11 7 6 4 4 3 3 5 8 10 12 15 12 10 7 10 9 10 15 14 12 14 15 17 20 19 19 18 17
27 27 26 20 10 6 5 6 9 10 7 7 8 6 3 1 2 4 6 3 4 4 2 1 2 1 1 1 6 2 7 5 2 7 6 4 6 0 7 5 3 6 5 7 8 5 7 3 5 4 3 4 9 6 4 8 10 14 6 9 9 6 4 3 2 3 7 7 8 8 15 16 12 7 7 12 10 13 14 15 17 18 21 20 19 18 19 18
27 28 28 17 12 7 6 4 5 5 3 6 8 4 3 5 1 8 4 2 4 1 1 1 0 0 5 1 3 4 4 4 5 8 9 9 10 10 11 8 10 8 11 9 9 3 9 13 2 2 2 12 9 9 7 6 7 8 9 12 12 5 5 6 4 8 9 8 3 2 9 6 14 15 2 8 14 11 12 14 15 17 20 19 20 20 17 17
28 29 32 13 7 7 16 11 1 4 8 9 5 1 4 4 9 7 3 3 2 2 3 4 1 5 6 6 4 4 2 5 5 7 9 6 10 12 11 11 15 10 9 8 7 9 7 2 4 5 2 8 12 14 8 8 10 10 13 11 12 7 9 7 5 2 2 6 3 1 11 11 2 12 16 15 16 19 17 15 10 8 11 16 18 16 15 16
28 28 16 6 8 10 8 5 7 6 6 2 4 2 1 5 6 7 14 8 4 2 3 2 6 4 2 6 6 0 5 4 7 6 9 8 10 10 7 2 12 8 3 6 13 11 9 10 15 11 9 8 13 15 11 5 11 11 6 13 11 8 9 8 6 8 7 5 4 5 7 5 8 4 4 15 16 11 9 13 10 9 8 10 14 15 18 19
30 21 12 11 5 7 11 9 5 6 4 4 4 7 9 10 0 5 6 6 5 6 6 3 5 7 9 2 2 2 2 0 1 4 8 9 10 9 10 10 7 8 5 9 3 5 16 9 2 10 1 10 13 5 8 9 9 10 5 3 8 12 6 11 5 7 7 4 4 7 6 3 6 5 7 4 7 8 9 12 11 13 11 10 12 16 18 18
20 9 10 5 3 3 5 6 8 7 6 5 7 6 14 7 7 4 3 4 1 4 4 4 1 7 5 3 1 2 3 3 3 3 3 9 9 11 11 9 11 15 10 11 6 6 3 11 4 2 2 10 11 8 8 11 12 7 5 14 8 7 11 5 3 5 4 1 7 5 4 5 5 10 15 11 7 14 8 8 10 12 12 12 13 15 18 18
10 12 7 6 4 1 3 7 8 7 4 6 7 12 7 4 3 3 2 3 1 1 1 4 2 6 3 3 3 1 5 3 2 2 5 2 3 8 8 7 10 15 16 12 3 4 9 5 6 7 11 8 5 12 12 13 4 7 11 9 6 4 2 6 9 4 7 10 5 7 8 5 3 5 1 2 7 13 11 11 9 9 12 15 16 15 17 19
13 8 8 7 4 2 5 7 9 5 5 8 13 9 4 10 4 7 1 1 2 1 0 3 1 2 1 2 3 1 4 6 2 2 3 7 3 7 10 6 10 14 15 15 10 4 5 8 8 11 14 9 5 5 8 11 6 9 7 13 13 7 11 1 2 8 8 10 6 5 8 8 7 8 1 5 4 8 10 7 7 10 13 16 16 17 16 16
9 4 4 3 3 3 5 8 5 5 6 8 10 10 5 7 1 7 5 4 2 1 3 4 5 2 2 3 1 2 3 6 2 4 4 4 7 5 11 8 10 15 17 15 13 4 7 10 4 3 12 8 9 10 16 14 6 3 3 13 1 5 7 8 6 0 5 10 4 8 6 9 7 6 7 12 11 10 10 6 10 13 15 15 14 15 14 15
7 4 2 3 4 4 8 6 3 2 4 11 8 9 1 9 9 8 4 5 4 6 6 6 7 7 4 5 3 8 1 5 5 3 3 1 6 2 5 6 4 11 13 16 11 10 6 5 9 3 1 5 12 9 17 15 13 8 9 9 5 3 3 2 3 8 8 8 7 8 8 5 5 6 10 12 13 12 12 11 7 10 13 15 14 13 13 16
4 2 3 4 4 6 4 3 3 6 6 3 2 5 2 4 2 4 5 7 6 4 4 4 5 7 3 1 6 2 3 4 3 6 4 4 5 5 8 9 7 7 7 8 11 7 6 7 10 5 7 10 11 9 13 16 14 11 12 10 11 9 9 12 11 3 2 8 3 7 13 4 8 6 10 12 13 13 13 12 10 10 11 10 9 12 13 14
4 5 0 4 5 2 4 3 5 4 4 7 5 3 5 5 8 7 7 4 9 6 3 6 7 8 6 8 7 3 5 7 9 8 6 10 6 7 2 2 3 9 9 8 10 10 6 3 9 10 11 12 13 9 6 7 12 14 14 12 14 13 11 11 13 7 3 4 3 2 6 7 7 10 11 11 10 13 12 5 9 9 7 7 10 12 13 14
3 7 10 11 5 5 4 4 3 4 7 5 5 10 6 7 5 2 3 3 5 5 4 7 7 8 9 9 7 9 9 8 8 9 7 8 12 11 4 3 6 6 5 4 9 8 5 5 6 10 8 6 6 3 1 2 7 12 16 14 14 17 18 15 11 6 9 6 7 4 9 4 4 1 6 8 8 6 4 6 11 10 5 6 10 12 13 13
6 8 7 1 2 5 3 5 2 5 6 6 7 9 7 7 4 4 6 4 5 4 6 5 5 11 7 9 9 9 8 8 8 13 10 6 7 6 10 7 5 4 7 5 7 9 8 2 7 6 6 7 11 7 8 3 6 9 10 13 15 14 16 10 5 3 11 12 12 8 14 6 5 2 2 4 8 10 12 11 8 10 6 6 8 10 10 10
8 6 7 6 0 4 3 2 3 4 4 6 6 6 7 6 6 11 11 9 5 7 3 5 7 4 7 5 8 9 8 12 7 7 10 3 6 2 4 2 5 5 9 6 6 9 8 7 10 12 13 13 12 15 17 11 11 5 5 9 12 21 20 6 12 5 10 7 15 12 11 4 2 1 3 4 4 10 13 11 6 7 8 6 7 9 8 10
4 6 4 3 1 3 5 3 4 5 4 6 6 4 4 7 6 8 10 11 10 8 9 6 4 3 7 7 8 9 11 10 11 3 3 5 4 3 2 1 5 7 9 12 8 9 3 5 11 11 13 14 11 8 2 4 5 12 10 13 11 12 16 14 2 6 12 4 8 7 10 6 8 8 6 8 8 12 13 10 9 10 10 8 7 8 10 9
4 3 4 4 7 3 1 2 4 6 5 6 3 4 5 6 6 7 7 8 9 11 5 9 7 8 6 9 10 11 12 11 12 12 11 11 8 4 7 7 9 7 9 9 10 8 1 6 13 16 16 15 16 15 11 14 13 12 14 15 16 17 16 17 15 16 8 7 11 6 9 12 11 10 10 11 11 9 9 8 7 7 9 8 7 5 6 8
2 3 3 4 3 5 7 1 9 9 7 6 5 5 7 9 6 5 4 5 4 4 7 5 11 13 11 4 2 4 1 7 9 12 8 10 11 11 14 9 8 2 7 6 4 8 6 11 16 17 18 19 21 20 13 11 15 14 16 15 17 17 17 20 17 14 12 13 16 9 8 11 11 13 11 14 14 13 13 15 13 7 2 4 7 10 12 13
4 5 5 7 4 4 5 9 13 9 9 6 5 7 9 9 8 3 3 6 5 3 10 7 9 7 3 2 1 3 2 4 6 5 7 7 10 8 8 8 7 3 2 5 1 3 2 8 6 12 17 19 21 20 13 15 12 14 16 17 17 19 19 20 19 17 16 14 14 10 14 16 14 13 13 12 13 14 10 2 3 4 10 10 10 10 13 13
3 3 3 6 5 9 11 8 6 7 6 7 5 5 4 5 6 8 5 2 5 4 1 7 5 2 4 2 3 5 6 7 6 5 2 4 8 6 8 6 4 2 5 4 4 2 3 3 1 7 10 14 17 16 14 15 16 17 15 15 16 16 18 22 21 19 16 18 18 14 13 13 12 14 14 7 1 1 1 7 11 11 9 11 13 13 13 15
3 3 4 6 8 6 7 6 5 5 6 5 5 4 4 3 5 9 11 8 10 7 1 3 7 8 2 4 4 8 6 1 5 9 11 8 7 3 1 1 2 4 2 3 3 4 3 4 1 2 5 8 11 14 15 14 16 19 20 18 14 15 14 11 9 4 10 9 8 4 6 9 8 8 6 3 3 6 11 11 10 9 11 11 12 13 14 14
4 4 4 4 5 6 7 7 7 5 5 3 2 4 4 6 9 9 8 5 8 11 10 7 8 9 9 4 6 3 3 9 11 12 12 11 11 14 10 10 7 4 0 3 5 6 2 2 3 1 8 10 6 9 15 14 10 12 16 16 14 13 11 11 13 13 16 15 11 10 11 7 9 4 7 9 9 10 10 10 10 8 7 11 14 14 14 14
Wind_Direction
352 352 351 349 346 346 344 343 342 341 339 337 335 332 330 329 330 329 327 326 326 325 323 327 327 326 325 325 324 325 329 322 279 196 227 241 212 189 178 190 166 163 142 125 124 132 137 132 138 155 155 183 155 192 157 176 162 196 201 214 198 183 196 178 184 184 146 158 167 168 174 157 154 163 132 127 133 139 151 146 137 56 99 134 121 135 143 152
350 349 349 347 345 344 343 342 340 338 337 335 333 331 330 327 326 324 326 325 325 323 323 325 326 325 324 325 324 325 328 289 285 254 231 260 203 196 176 181 155 157 148 136 154 156 143 159 150 161 155 180 165 149 152 179 195 196 152 236 241 190 190 176 196 172 152 173 164 168 170 171 157 155 158 152 150 152 156 142 148 115 120 116 134 140 148 157
349 348 346 345 344 342 342 341 339 336 335 333 332 328 328 325 326 327 327 323 322 324 323 325 324 323 324 324 321 323 336 294 257 270 315 359 251 194 177 170 161 163 167 162 169 158 154 155 149 156 177 159 189 154 202 143 189 219 231 234 241 191 175 191 184 182 196 150 158 165 169 173 147 160 162 171 161 170 170 156 162 155 149 145 146 150 154 161
348 346 345 344 342 342 340 339 337 335 332 331 329 328 326 326 325 324 323 322 321 322 323 322 321 322 321 321 317 322 298 276 275 270 175 6 84 154 167 166 170 174 146 150 164 156 131 146 156 166 152 223 162 189 174 160 207 150 212 234 242 173 182 195 188 184 171 162 161 161 155 158 161 158 170 152 153 191 193 183 172 168 159 152 154 157 161 166
347 345 344 342 341 339 338 337 334 334 331 329 327 326 326 323 323 322 322 321 319 319 319 320 319 318 320 313 311 337 296 289 337 209 278 35 115 147 162 169 178 179 170 124 129 113 143 144 158 177 179 187 159 175 232 171 219 134 224 237 222 155 222 174 190 170 163 163 154 156 164 170 149 160 173 163 171 190 199 192 191 159 158 157 160 162 165 169
346 345 343 341 340 339 336 335 335 331 330 325 325 324 322 322 320 319 318 319 319 317 317 317 315 315 317 313 303 293 303 308 359 249 132 128 136 164 171 167 179 159 140 150 155 149 136 151 154 182 200 195 182 191 175 193 178 229 233 252 242 186 215 158 175 162 149 155 162 171 167 136 163 176 181 180 190 72 198 180 167 164 157 156 158 161 169 172
345 344 342 340 338 337 336 334 333 331 326 325 322 321 320 321 320 318 316 314 311 314 315 315 311 311 313 310 280 232 223 264 312 198 358 71 109 182 179 167 158 163 171 152 157 156 174 161 179 185 179 192 197 207 178 186 189 229 245 214 239 189 228 162 174 160 159 163 179 164 146 157 167 176 180 193 193 311 168 159 155 153 155 154 162 171 174 176
343 342 341 339 338 336 335 334 331 328 326 323 321 321 320 318 317 315 313 315 316 315 315 311 308 306 300 290 219 210 139 252 250 28 356 62 52 115 179 165 163 172 182 183 169 173 164 166 185 154 193 186 161 191 168 181 173 213 237 226 263 190 221 173 165 168 170 168 146 148 162 181 178 162 158 200 190 142 150 147 148 152 158 160 163 171 176 179
343 341 340 339 337 336 335 333 331 328 325 323 321 321 320 318 317 316 314 314 314 314 311 307 301 302 124 282 235 297 252 229 271 57 91 90 101 95 127 148 175 176 190 191 189 171 167 187 174 177 193 198 160 188 168 199 214 219 229 215 194 204 182 175 170 168 163 140 149 160 180 152 134 111 186 194 167 148 142 145 152 156 162 167 171 173 175 181
343 341 339 338 338 337 335 333 331 328 325 323 322 320 318 317 315 314 313 313 314 312 305 301 282 236 244 224 161 271 285 107 66 72 103 123 124 107 66 150 175 189 181 189 184 162 198 180 185 185 67 177 154 201 160 198 243 187 212 222 223 200 165 175 168 170 160 159 164 168 166 158 143 165 208 188 154 145 150 149 156 162 169 172 173 176 178 182
342 340 339 338 337 337 335 333 331 328 325 323 321 319 317 316 313 313 313 312 313 308 300 283 251 205 210 247 221 263 150 131 108 124 119 128 122 76 160 164 174 181 190 176 192 184 164 151 80 99 300 212 169 180 183 192 123 142 120 101 75 151 176 169 167 157 148 146 174 159 130 129 160 211 237 166 158 156 157 155 162 169 170 173 175 177 182 189
343 341 339 338 337 336 335 334 331 328 325 323 320 318 316 315 315 314 312 311 308 306 306 252 188 192 284 223 230 240 130 117 137 107 161 209 290 276 170 169 172 182 181 178 195 189 168 151 148 180 201 129 177 104 234 163 192 168 164 153 102 148 141 173 169 167 167 143 158 126 109 182 189 215 181 145 155 164 162 162 166 171 171 173 176 179 186 192
342 341 339 338 336 335 334 334 331 328 325 322 320 317 317 315 313 312 311 309 313 336 120 169 161 198 285 259 226 240 238 192 290 292 257 209 185 103 177 168 165 171 197 178 176 200 157 147 173 196 343 204 148 197 92 122 148 142 181 141 135 152 161 179 160 170 165 143 155 149 206 213 207 192 139 152 159 160 161 168 169 173 174 174 178 183 190 193
342 340 339 337 336 335 334 332 331 327 324 322 318 315 316 314 312 313 306 289 291 210 175 148 149 144 238 257 283 227 251 272 278 278 267 139 171 141 128 178 165 165 184 192 183 205 162 188 95 57 74 230 166 135 154 79 157 171 132 181 172 161 188 162 182 169 165 148 167 176 224 225 193 183 154 164 162 165 171 173 175 175 178 179 181 185 191 195
342 340 338 337 335 334 333 331 329 327 324 320 316 313 315 314 313 310 299 285 196 165 157 138 102 188 228 270 259 280 232 153 244 245 152 145 146 106 173 167 189 202 196 179 159 58 124 135 167 235 224 182 320 208 117 141 140 145 153 188 189 200 133 155 180 182 168 165 187 189 239 243 164 179 161 169 173 173 175 176 178 178 180 184 184 187 191 194
340 340 338 337 335 334 332 331 328 327 324 319 315 315 315 313 314 305 326 122 137 155 150 168 166 231 313 290 1 339 205 217 186 252 179 174 170 169 164 147 131 181 297 228 103 85 143 165 202 208 194 125 198 183 148 144 172 205 238 163 186 208 152 157 196 201 187 150 186 194 218 249 224 172 166 172 175 181 177 179 182 184 185 184 188 191 191 188
339 341 338 337 335 334 332 331 329 328 324 319 319 313 315 312 308 107 111 122 133 125 182 78 110 199 289 88 328 278 245 229 308 197 162 214 184 143 130 140 162 159 135 354 139 137 135 191 119 130 299 212 174 174 171 192 170 192 216 197 180 187 153 179 141 199 171 164 181 207 239 224 72 162 170 174 179 182 185 182 185 186 188 189 188 191 192 195
340 340 339 336 335 333 331 329 329 328 324 320 318 309 309 308 291 119 124 103 113 144 174 258 244 275 251 311 254 213 45 300 291 293 279 304 158 155 146 147 113 129 139 125 92 191 185 191 183 199 171 178 171 185 198 196 180 181 186 185 197 228 177 169 171 186 179 191 186 193 220 234 143 150 177 180 182 184 190 186 186 187 190 191 192 193 196 197
340 339 337 337 335 332 330 329 329 327 324 321 309 300 340 109 208 226 256 173 196 156 233 155 195 196 254 230 238 306 267 215 266 297 281 133 131 139 38 77 130 138 155 181 146 189 164 192 187 182 195 181 188 194 206 178 177 187 187 194 184 179 194 190 149 147 180 187 204 192 210 223 175 165 176 187 190 193 194 192 193 193 192 192 193 195 198 202
339 338 336 336 335 332 330 329 329 326 328 328 340 353 207 265 212 167 197 216 223 240 275 260 214 286 295 279 282 309 242 142 271 209 137 131 129 156 158 126 87 117 149 191 134 204 152 194 196 198 190 179 182 194 204 190 185 183 194 201 193 188 138 116 106 146 174 189 215 215 232 249 215 182 187 190 191 201 200 197 196 196 195 195 197 198 201 205
338 337 336 335 332 332 327 328 327 325 325 313 297 306 36 358 336 337 328 273 250 253 249 251 227 235 243 321 227 17 346 286 219 249 190 148 131 154 168 168 145 164 196 156 157 116 192 215 211 195 176 177 183 192 195 170 183 181 191 208 203 193 181 169 146 158 166 191 210 236 257 247 258 197 196 191 198 208 205 201 202 199 198 198 199 200 202 208
337 335 334 333 331 331 325 326 325 326 317 267 343 18 76 30 355 309 314 311 269 215 232 240 232 255 260 252 259 264 245 276 266 238 228 190 138 211 155 197 160 191 133 139 112 163 199 216 195 191 191 189 183 186 184 177 187 184 192 196 199 187 91 93 118 152 159 193 223 163 231 240 235 225 202 201 206 216 211 207 205 200 201 202 203 204 205 201
336 334 333 331 333 329 327 322 324 327 314 359 3 317 79 5 328 316 263 266 276 204 236 237 237 243 264 258 235 174 219 224 247 232 191 187 154 217 145 180 180 159 148 182 192 171 207 222 194 172 166 182 169 178 179 192 189 186 181 167 213 164 176 166 154 149 166 187 230 173 234 247 213 223 221 213 213 217 217 214 210 206 206 204 203 201 203 204
335 334 331 331 331 330 325 322 315 285 338 320 269 224 69 325 347 346 206 265 305 292 211 215 217 237 245 264 166 178 198 218 191 243 164 171 173 144 160 170 163 166 192 182 211 199 198 52 166 145 179 187 180 178 177 185 196 195 188 198 185 159 202 201 153 126 129 67 91 131 241 256 210 218 218 214 213 221 218 216 219 219 220 217 214 211 206 203
334 332 331 330 332 330 323 317 342 343 311 291 223 239 271 346 355 358 247 273 238 266 149 253 175 239 228 66 143 182 209 229 222 277 174 185 127 148 182 132 155 196 179 172 166 229 230 231 143 161 181 197 173 183 191 181 197 198 217 209 181 179 186 111 128 132 181 209 204 192 262 258 204 211 224 196 193 216 214 215 218 218 219 212 214 214 211 215
333 331 330 330 331 337 314 303 46 344 320 305 126 148 350 335 358 294 239 328 289 276 309 220 166 114 132 140 154 171 125 231 220 212 191 204 163 150 108 174 216 195 165 160 202 235 224 124 175 172 172 193 189 191 193 186 197 190 206 201 166 170 163 154 161 174 195 227 194 188 226 253 132 217 213 196 198 210 208 218 221 218 219 213 214 216 213 210
331 328 327 329 331 343 354 345 357 335 315 125 93 345 342 334 322 196 253 227 264 183 189 55 225 177 230 158 166 161 214 135 41 169 198 207 187 125 181 161 120 54 136 135 97 213 168 164 172 190 177 184 190 201 192 199 182 205 114 162 158 155 162 166 173 193 211 72 81 189 212 248 268 246 192 193 207 210 214 219 221 219 216 215 214 214 212 209
329 324 325 327 326 339 287 286 318 312 245 335 348 331 328 336 277 230 245 349 285 83 256 197 271 74 260 165 181 207 356 308 226 179 202 182 196 141 224 167 185 155 150 171 210 105 177 171 188 180 197 189 201 188 158 204 190 182 153 155 166 166 171 168 180 199 189 199 199 199 143 251 254 247 84 178 210 220 226 222 220 219 217 215 213 214 213 210
326 323 321 325 321 309 272 238 270 252 239 336 324 321 335 312 229 254 350 239 191 229 60 177 359 162 54 115 208 249 313 221 303 39 165 127 278 143 201 171 168 161 167 187 221 116 252 195 189 182 186 207 164 186 175 175 193 79 112 87 91 111 161 177 191 190 139 201 216 200 184 223 247 206 141 180 224 226 226 223 221 215 212 212 211 213 214 210
324 321 319 322 324 304 272 248 235 241 303 316 304 309 314 258 190 200 115 235 18 320 192 117 199 195 121 169 225 231 243 256 238 78 162 183 190 263 27 115 153 155 177 221 227 218 139 358 191 184 201 191 183 183 177 189 115 121 131 124 105 82 103 55 30 115 131 219 224 199 190 205 261 206 186 166 213 215 224 226 224 216 215 215 214 211 211 208
322 318 314 321 309 310 296 256 249 254 248 267 276 273 271 150 233 167 216 214 338 240 357 252 145 240 114 216 311 148 237 251 255 151 145 216 170 284 131 118 66 171 165 184 209 196 247 175 160 217 179 147 191 165 219 197 145 147 136 134 119 86 104 114 100 189 208 218 232 203 194 204 234 244 186 210 216 213 213 219 214 205 209 208 208 208 209 207
320 317 311 314 285 256 207 258 118 80 94 321 314 303 194 206 342 212 210 94 250 107 110 64 18 345 308 212 234 208 190 193 218 176 171 183 176 185 183 185 168 170 202 184 203 104 224 224 195 255 222 177 175 198 171 169 189 193 149 150 174 157 173 181 160 198 211 221 145 151 172 212 233 253 116 218 237 241 229 233 227 207 210 204 208 206 203 204
321 315 310 295 259 208 232 247 285 312 342 353 340 251 200 190 238 169 253 195 249 25 131 215 86 300 298 278 264 239 50 247 165 208 172 169 185 194 185 192 175 188 205 165 196 177 213 251 238 217 190 203 185 199 152 189 187 192 180 165 190 169 188 190 175 3 208 271 208 180 175 232 303 269 256 255 252 236 231 234 243 233 214 199 204 199 196 201
319 317 310 276 248 227 239 223 245 288 305 260 191 156 188 215 238 162 207 214 256 51 356 18 312 289 211 317 311 132 254 207 180 188 187 171 194 189 200 285 189 163 182 148 205 189 206 202 222 184 218 152 204 217 186 162 166 198 197 179 208 188 192 198 167 197 198 195 103 145 161 217 186 215 186 224 245 275 245 233 227 222 219 203 207 206 209 211
317 303 287 291 261 243 233 226 205 204 194 189 165 201 199 217 77 183 219 229 265 301 292 90 312 338 304 201 334 246 285 344 137 160 191 169 193 198 187 186 208 193 127 185 169 180 216 234 68 192 198 166 197 203 163 142 181 189 183 203 206 211 117 231 158 211 183 154 155 164 225 166 217 342 294 259 277 269 256 239 209 213 205 186 188 198 204 206
314 321 307 271 283 280 186 187 180 189 184 180 188 202 220 180 195 155 223 183 145 237 316 308 174 266 252 282 127 304 181 274 62 221 229 209 183 199 186 180 185 187 173 210 136 199 104 225 160 184 157 187 188 156 195 161 212 150 165 209 210 127 183 82 62 23 66 190 228 149 256 243 287 281 267 261 260 265 245 245 219 216 195 181 195 199 202 202
326 326 333 315 286 270 163 157 165 171 205 214 195 229 205 267 232 213 290 191 159 318 151 258 208 210 213 209 194 62 347 291 140 280 213 159 244 211 176 203 182 187 198 188 192 223 192 196 167 173 204 217 193 189 188 209 178 118 206 196 84 6 328 181 223 126 220 230 214 169 210 232 174 258 124 313 246 254 244 228 216 201 180 194 204 198 196 196
319 310 273 268 307 15 140 155 152 178 197 195 219 232 158 226 191 239 122 93 197 108 359 202 306 259 233 244 168 355 7 324 11 299 287 182 262 163 187 183 182 192 197 196 216 180 207 230 195 203 207 177 161 184 218 212 201 220 222 131 187 168 202 127 188 201 192 220 229 185 222 247 203 230 256 263 244 256 257 218 175 193 198 207 209 205 199 195
292 299 316 63 14 119 124 146 167 162 188 204 222 233 204 235 165 231 234 253 134 248 252 223 246 200 250 196 276 244 334 305 351 285 268 176 227 164 197 176 190 199 195 183 210 139 184 234 177 196 203 158 174 183 220 201 185 20 109 178 310 183 193 172 194 35 191 239 210 223 180 230 185 214 200 237 250 257 264 243 198 204 202 206 209 204 190 187
337 328 272 72 93 119 144 160 138 229 223 217 198 224 111 213 221 229 213 194 212 200 234 230 204 251 238 276 293 285 245 240 253 289 243 150 249 107 206 222 184 195 195 186 198 154 204 189 240 128 33 141 208 185 218 208 189 185 196 187 178 213 4 253 148 209 197 222 213 238 224 202 179 198 209 223 237 241 240 247 220 214 213 212 204 194 184 190
301 223 258 110 143 141 167 239 208 207 229 295 293 252 207 232 203 233 232 208 235 246 252 203 175 200 189 250 230 169 256 252 240 249 242 255 224 237 209 201 192 178 161 188 213 186 192 171 219 159 183 207 218 188 214 214 213 196 200 194 186 158 168 196 218 103 198 211 200 197 245 200 179 178 198 216 226 229 234 235 240 232 219 209 200 198 187 189
323 315 22 100 136 206 300 256 217 197 245 243 229 186 241 255 256 259 257 196 219 232 178 240 234 254 240 248 253 244 261 270 258 256 244 256 225 250 343 210 166 135 154 174 205 195 204 138 210 212 210 215 216 192 214 249 225 204 198 202 193 202 194 199 228 177 163 225 59 256 278 246 170 188 197 215 233 237 245 238 257 257 236 207 201 204 197 193
312 256 293 306 271 221 228 237 252 223 226 242 317 283 257 269 259 270 238 167 207 202 210 211 203 205 216 238 212 232 220 250 235 238 241 238 249 239 248 152 119 174 206 188 198 190 109 194 190 231 232 232 220 121 151 205 215 214 210 209 193 209 204 215 219 134 206 153 201 180 235 240 183 138 228 232 245 278 315 238 242 254 238 210 197 197 193 194
300 293 312 189 318 202 240 250 242 240 251 268 267 271 284 279 279 269 234 227 219 171 206 200 211 221 247 203 224 230 185 248 213 233 240 217 254 234 239 241 173 214 203 166 212 147 197 152 209 204 229 228 230 214 216 142 213 216 212 207 205 212 211 217 99 91 223 184 197 188 239 193 188 130 211 244 259 256 252 243 232 253 249 220 206 198 192 190
292 257 237 287 241 210 250 341 319 316 329 326 306 282 272 249 227 244 253 248 234 248 230 232 232 194 220 202 231 237 223 228 272 217 240 219 251 357 308 252 201 236 233 219 235 152 217 168 187 212 210 215 207 209 213 201 204 209 235 213 207 209 209 152 206 162 225 161 197 214 229 160 193 284 207 237 255 260 255 253 252 245 258 234 210 197 188 181
322 330 298 283 201 234 244 253 40 359 329 339 313 272 261 258 254 249 243 254 242 244 242 267 261 262 258 255 256 244 241 227 232 242 198 236 237 235 162 174 211 244 243 234 219 172 221 179 192 201 214 224 229 225 176 118 133 217 196 210 204 222 214 202 191 198 213 145 207 212 217 196 198 203 216 230 228 240 247 235 228 239 237 229 212 197 191 188
303 250 307 323 322 221 47 29 13 1 341 338 290 326 290 270 306 289 210 247 202 226 223 217 230 236 221 231 241 249 244 245 236 250 248 262 267 273 303 313 309 278 273 283 224 206 130 216 196 206 211 220 219 217 197 195 212 206 208 206 200 197 206 208 204 221 122 117 231 198 194 218 211 200 207 220 224 235 251 249 240 237 237 219 210 205 187 180
251 254 353 8 312 294 330 287 1 326 310 303 278 293 284 291 293 281 300 254 336 236 221 188 225 229 243 226 70 241 188 235 235 244 248 245 266 272 280 267 262 295 342 348 273 199 210 220 202 202 212 216 222 225 198 192 216 208 212 210 202 194 195 209 216 216 154 209 231 184 171 211 216 212 208 216 211 212 219 220 217 219 179 177 185 190 193 195
278 321 300 348 288 304 303 300 310 297 300 297 278 272 274 282 286 347 322 318 297 216 208 227 204 197 170 40 253 239 216 261 241 223 238 239 228 247 248 267 236 178 345 351 26 165 250 251 233 212 217 213 221 224 202 199 206 214 212 210 203 197 201 206 212 213 202 224 233 210 184 209 212 215 217 219 214 213 217 149 86 194 208 199 197 197 197 192
312 350 305 347 298 290 291 293 290 306 297 302 296 258 298 291 302 344 327 318 296 278 28 233 245 11 344 336 219 226 220 247 318 290 358 316 266 209 246 236 269 166 9 9 337 79 222 245 147 199 227 232 231 228 217 209 214 220 214 204 205 209 204 200 207 206 200 217 217 211 196 217 216 220 221 227 358 26 55 208 214 210 196 187 193 195 195 197
306 305 287 304 301 281 271 267 286 311 306 283 251 281 322 320 348 341 303 259 241 272 335 11 14 341 345 301 245 249 255 344 310 271 276 276 267 26 305 64 30 278 356 21 360 345 236 270 55 154 235 238 231 225 218 214 220 229 229 215 195 196 208 214 226 154 190 204 205 154 219 226 226 220 241 233 204 199 215 215 212 206 198 193 196 197 194 198
302 280 265 267 271 282 296 291 289 283 261 263 312 345 332 310 323 329 316 258 238 256 275 358 3 342 299 274 283 298 343 307 287 275 269 263 254 265 257 260 280 288 92 26 329 295 310 312 298 229 250 257 240 211 222 210 212 233 233 231 207 195 197 196 209 190 196 194 201 207 229 215 221 176 214 228 215 221 228 225 219 210 197 200 202 199 197 197